Regional Weather Roundup
Issued by NWS

Home | Current Version | Previous Version | Graphics & Text | Print | Product List | Glossary On
Versions: 1 2 3 4 5 6 7 8 9 10 11 12 13 14 15 16 17 18 19 20 21 22 23 24 25 26 27 28 29 30 31 32 33 34 35 36 37 38 39 40 41 42 43 44 45 46 47 48 49 50
000
ASUS43 KIND 171200
RWRIN

WEATHER ROUNDUP FOR INDIANA
NATIONAL WEATHER SERVICE INDIANAPOLIS IN
800 AM EDT TUE OCT 17 2017

NOTE: "FAIR" INDICATES FEW OR NO CLOUDS BELOW 12,000 FEET WITH NO
SIGNIFICANT WEATHER AND/OR OBSTRUCTIONS TO VISIBILITY.

* - STATION DOES NOT REPORT WEATHER SUCH AS PRECIPITATION OR FOG.

+ - STATION NOT QUALITY CONTROLLED BY THE NATIONAL WEATHER SERVICE.
    USE DATA WITH CAUTION...ESPECIALLY DEWPOINT AND RELATIVE
    HUMIDITY OBSERVATIONS.

INZ001>003-010>013-019-020-171300-
NORTHWEST INDIANA

CITY           SKY/WX    TMP DP  RH WIND       PRES   REMARKS
GARY /AIRPORT/ PTCLDY    50  37  62 SW8       30.24R
KNOX *+        CLEAR     43  37  81 SW8       30.26F
MICHIGAN CITY+ CLEAR     45  37  76 S9        30.24S
MONTICELLO +   CLEAR     43  37  79 S7        30.29F
6HR MIN TEMP:  43; 6HR MAX TEMP:  45;

RENSSELAER +   CLEAR     45  36  70 SW8       30.28F

$$

LMZ046-743>745-171300-
SOUTHERN LAKE MICHIGAN

STATION/POSITION TIME  TEMP    WIND        PRES    WAVE
                       AIR SEA DIR/SP/G            HT
                 (UTC) (F)     (DEG/KT/KT) (MB)    (FT)
BURNS HARBOR     1140   49     190/ 16/ 22 1023.7F
MICHIGAN CITY    1130   50     160/ 18/ 20   N/A
5NW MICH CITY    1140   52 57  200/ 16/ 19   N/A     2

$$

INZ004-005-014>016-021>024-171300-
NORTH CENTRAL INDIANA

CITY           SKY/WX    TMP DP  RH WIND       PRES   REMARKS
ELKHART        CLEAR     45  37  76 SW6       30.25S
GOSHEN         CLEAR     44  37  76 SW9       30.26S
6HR MIN TEMP:  43; 6HR MAX TEMP:  45;

PERU/GRISSOM   CLEAR     44  38  79 SW12      30.30S
6HR MIN TEMP:  42; 6HR MAX TEMP:  44;

SOUTH BEND     CLEAR     44  39  82 SW12      30.25S
6HR MIN TEMP:  43; 6HR MAX TEMP:  45;

WARSAW +       PTCLDY    45  37  76 SW5       30.27F

$$

INZ006>009-017-018-025>027-171300-
NORTHEAST INDIANA

CITY           SKY/WX    TMP DP  RH WIND       PRES   REMARKS
AUBURN +       CLEAR     45  36  70 SW6       30.28S
FORT WAYNE     PTCLDY    42  37  82 SW10      30.30S
6HR MIN TEMP:  40; 6HR MAX TEMP:  43;

KENDALLVILLE + CLEAR     44  38  82 SW8       30.27S

$$

INZ028-029-035-036-043>045-051>053-171300-
WEST CENTRAL INDIANA

CITY           SKY/WX    TMP DP  RH WIND       PRES   REMARKS
GREENCASTLE +  CLEAR     36  34  93 CALM      30.35S
LAFAYETTE      CLEAR     39  38  96 CALM      30.32S
6HR MIN TEMP:  39; 6HR MAX TEMP:  45;

TERRE HAUTE    CLEAR     38  36  92 CALM      30.35S
6HR MIN TEMP:  37; 6HR MAX TEMP:  42;


$$

INZ030>032-037>040-046>048-054>057-064-065-171300-
CENTRAL INDIANA

CITY           SKY/WX    TMP DP  RH WIND       PRES   REMARKS
COLUMBUS       CLEAR     37  36  93 CALM      30.36R
GREENWOOD *+   CLEAR     42  39  92 CALM      30.36R
INDIANAPOLIS   PTCLDY    43  38  82 SW3       30.35R
6HR MIN TEMP:  41; 6HR MAX TEMP:  45;

-EAGLE CREEK   CLEAR     41  37  86 S3        30.33S
6HR MIN TEMP:  41; 6HR MAX TEMP:  45;

KOKOMO +       CLEAR     47  37  68 SW10      30.32S
6HR MIN TEMP:  45; 6HR MAX TEMP:  48;

MT COMFORT *+  CLEAR     39  39 100 CALM      30.34S
SHELBYVILLE    CLEAR     38  34  85 S3        30.35R
6HR MIN TEMP:  38; 6HR MAX TEMP:  43;


$$

INZ033-034-041-042-049-050-058-059-171300-
EAST CENTRAL INDIANA

CITY           SKY/WX    TMP DP  RH WIND       PRES   REMARKS
MUNCIE         CLEAR     46  36  68 SW7       30.33S
6HR MIN TEMP:  45; 6HR MAX TEMP:  47;

RICHMOND +     CLEAR     39  36  87 SW5       30.35F

$$

INZ060-061-067>069-081>083-085>088-171300-
SOUTHWEST INDIANA

CITY           SKY/WX    TMP DP  RH WIND       PRES   REMARKS
EVANSVILLE     CLEAR     39  38  96 CALM      30.38R
6HR MIN TEMP:  39; 6HR MAX TEMP:  43;

HUNTINGBURG +  CLEAR     39  38  96 CALM      30.38R
6HR MIN TEMP:  38; 6HR MAX TEMP:  42;


$$

INZ062-063-066-070>080-084-089>092-171300-
SOUTH CENTRAL AND SOUTHEAST INDIANA

CITY           SKY/WX    TMP DP  RH WIND       PRES   REMARKS
BLOOMINGTON    CLEAR     38  34  85 CALM      30.36R
6HR MIN TEMP:  37; 6HR MAX TEMP:  40;

MADISON *+     CLEAR     39  37  93 CALM      30.38R
SEYMOUR +      FOG       37  36  93 CALM      30.38R VSB 1/2

$$





USA.gov is the U.S. government's official web portal to all federal, state and local government web resources and services.